This is the latest recevied weather packets stored in our database for station/object KE8URB. If no packets are shown the sender has not sent any weather packets the latest 10 day(s).
| Time | Temp. | Humidity | Pressure | Rain* | Wind** | Luminosity | Snow |
|---|---|---|---|---|---|---|---|
| 1788021788 | 24.44° C | 59% | 1024.3 hPa | 0 mm | - | 38 W/m² | - |
| 1788021488 | 24.44° C | 57% | 1024.3 hPa | 0 mm | - | 38 W/m² | - |
| 1788021181 | 24.44° C | 58% | 1024.4 hPa | 0 mm | - | 108 W/m² | - |
| 1788020877 | 23.89° C | 56% | 1024.2 hPa | 0 mm | - | 578 W/m² | - |
| 1788020571 | 23.89° C | 60% | 1024.4 hPa | 0 mm | - | 369 W/m² | - |
| 1788020268 | 23.89° C | 59% | 1024 hPa | 0 mm | - | 78 W/m² | - |
| 1788019963 | 23.89° C | 62% | 1024.3 hPa | 0 mm | - | 82 W/m² | - |
| 1788019663 | 23.89° C | 60% | 1024.2 hPa | 0 mm | - | 44 W/m² | - |
| 1788019363 | 23.89° C | 60% | 1024.2 hPa | 0 mm | - | 45 W/m² | - |
| 1788019061 | 23.33° C | 62% | 1024.3 hPa | 0 mm | - | 37 W/m² | - |
| 1788018761 | 23.33° C | 61% | 1024.3 hPa | 0 mm | - | 35 W/m² | - |
| 1788018456 | 23.33° C | 61% | 1024.5 hPa | 0 mm | - | 57 W/m² | - |
| 1788018155 | 22.78° C | 62% | 1024.4 hPa | 0 mm | - | 37 W/m² | - |
| 1788017852 | 22.78° C | 60% | 1024.5 hPa | 0 mm | - | 42 W/m² | - |
| 1788017548 | 22.78° C | 63% | 1024.3 hPa | 0 mm | - | 59 W/m² | - |
| 1788017245 | 23.33° C | 61% | 1024.3 hPa | 0 mm | - | 59 W/m² | - |
| 1788016940 | 22.78° C | 61% | 1024.5 hPa | 0 mm | - | 124 W/m² | - |
| 1788016638 | 22.78° C | 62% | 1024.4 hPa | 0 mm | - | 91 W/m² | - |
| 1788016337 | 22.78° C | 62% | 1024.5 hPa | 0 mm | - | 115 W/m² | - |
| 1788016037 | 22.22° C | 62% | 1024.7 hPa | 0 mm | - | 66 W/m² | - |
| 1788015737 | 21.67° C | 62% | 1025 hPa | 0 mm | - | 83 W/m² | - |
| 1788015432 | 21.67° C | 63% | 1025 hPa | 0 mm | - | 96 W/m² | - |
| 1788015127 | 21.67° C | 65% | 1025 hPa | 0 mm | - | 285 W/m² | - |
| 1788014825 | 21.11° C | 67% | 1025 hPa | 0 mm | - | 47 W/m² | - |
| 1788014525 | 21.11° C | 66% | 1025.2 hPa | 0 mm | - | 35 W/m² | - |
* Rain latest hour (hover to see other rain measurements)
** Current wind speed in m/s (hover to see current wind gust speed)